This is the latest recevied weather packets stored in our database for station/object CE3MXM-12. If no packets are shown the sender has not sent any weather packets the latest 10 day(s).
| Time | Temp. | Humidity | Pressure | Rain* | Wind** | Luminosity | Snow |
|---|---|---|---|---|---|---|---|
| 1777913378 | 20° C | 64% | 1015.9 hPa | - | - | - | - |
| 1777913078 | 19.44° C | 65% | 1015.7 hPa | - | - | - | - |
| 1777912777 | 19.44° C | 66% | 1015.7 hPa | - | - | - | - |
| 1777912477 | 19.44° C | 66% | 1015.7 hPa | - | - | - | - |
| 1777912177 | 19.44° C | 66% | 1015.6 hPa | - | - | - | - |
| 1777911877 | 19.44° C | 66% | 1015.7 hPa | - | - | - | - |
| 1777911577 | 19.44° C | 67% | 1015.7 hPa | - | - | - | - |
| 1777911277 | 18.89° C | 68% | 1015.7 hPa | - | - | - | - |
| 1777910977 | 18.89° C | 68% | 1015.7 hPa | - | - | - | - |
| 1777910677 | 18.89° C | 68% | 1015.8 hPa | - | - | - | - |
| 1777910377 | 18.89° C | 67% | 1015.8 hPa | - | - | - | - |
| 1777910077 | 18.89° C | 67% | 1015.7 hPa | - | - | - | - |
| 1777909777 | 18.89° C | 67% | 1015.8 hPa | - | - | - | - |
| 1777909477 | 18.89° C | 68% | 1016 hPa | - | - | - | - |
| 1777909176 | 18.89° C | 69% | 1016 hPa | - | - | - | - |
| 1777908876 | 18.33° C | 68% | 1016 hPa | - | - | - | - |
| 1777908576 | 18.89° C | 68% | 1015.9 hPa | - | - | - | - |
| 1777908276 | 18.89° C | 67% | 1016.1 hPa | - | - | - | - |
| 1777907976 | 19.44° C | 65% | 1016.1 hPa | - | - | - | - |
| 1777907676 | 19.44° C | 65% | 1016.1 hPa | - | - | - | - |
| 1777907376 | 19.44° C | 66% | 1016.2 hPa | - | - | - | - |
| 1777907076 | 18.89° C | 68% | 1016.1 hPa | - | - | - | - |
| 1777906775 | 18.33° C | 69% | 1016.2 hPa | - | - | - | - |
| 1777906475 | 18.33° C | 69% | 1016.2 hPa | - | - | - | - |
| 1777906177 | 18.33° C | 69% | 1016 hPa | - | - | - | - |
* Rain since midnight (hover to see other rain measurements)
** Current wind speed in m/s (hover to see current wind gust speed)